User: anonymous   Login
Location: Unspecified
(0.0000°N, 0.0000°E)
Time: 23:49:55
(UTC+00:00)
Language:

Vela 3B - Orbit

View from above orbital plane
View from above orbital plane
View from above satellite
View from above satellite

Ground track
Ground track

The orbit data is extracted from the following two-line orbital elements,

1 01459U 65058B   15248.55138383 -.00001488  00000-0  00000+0 0  9990
2 01459 004.6676 063.6298 4405737 282.6286 359.0549 00.21403220 39616
Epoch (UTC): 05 September 2015 13:13:59
Eccentricity: 0.4405737
inclination: 4.6676°
perigee height: 59664 km
apogee height: 163686 km
right ascension of ascending node: 63.6298°
argument of perigee: 282.6286°
revolutions per day: 0.21403220
mean anomaly at epoch: 359.0549°
orbit number at epoch: 3961

The dashed part of the orbit path shows where the satellite is in the earth's shadow,  

DLR